Das Wetter in  D-61279 Heinzenberg / Taunus





Wetter Minimum- & Maximum-Werte im Dezember 2013

Standort: Heinzenberg / Taunus - Höhe 297 m         8 24' 1" Ost 50 21' 51" Nord
(   3-stündige Aktualisierung    letzte Aktualisierung um 19:04 am 31.12.2013  )


Messgrösse

Minimum

Maximum

Durchschnitt

Temperatur West /
Luftfeuchte West
Anklicken für Monats-Diagramm

-3,9 C

07:33
03.12.2013

52 %

16:37
15.12.2013

12,7 C

19:26
24.12.2013

94 %

16:01
06.12.2013

Temp

4,0 C

Feuchte

83 %

Temperatur Ost /
Luftfeuchte Ost
Anklicken für Monats-Diagramm

-4,3 C

06:58
03.12.2013

--

--
--

61,8 C

15:20
10.12.2013

--

--
--

3,9 C

--

Luftdruck Anklicken für Monats-Diagramm

988,8 hPa

04:52
25.12.2013

1037,4 hPa

19:25
10.12.2013

1021,6 hPa

Taupunkt

-5,6 C

05:18
03.12.2013

7,2 C

06:47
25.12.2013

1,2 C

Windchill
( gefühlte Temperatur )

-16,0 C

15:51
06.12.2013

10,5 C

15:43
16.12.2013

0,0 C

Windgeschwindigkeit /
Windrichtung
Anklicken für Monats-Diagramm

---

63,0 km/h / W

20:00
05.12.2013

11,5 km/h
W-SW

Helligkeit /
Sonnenschein
Anklicken für Monats-Diagramm
Anklicken für Monats-Diagramm

Sonnenschein:

55:56 Stunden

Max: 7:00 Std am
03.12.2013

42,9 klux

12:18
27.12.2013

8,4 klux

Solarstrahlung Anklicken für Monats-Diagramm

---

293 W/m

12:18
27.12.2013

66 W/m

Regenmenge
    Dezember 2013
Anklicken für Monats-Diagramm

Insgesamt 18,1 l/m

in 48:10 Stunden
an 17 Tagen

5,5 l/m

20:39
28.12.2013

Gesamtmenge

18,1 l/m

Regen-Tage
    Dezember 2013
Anklicken für Monats-Diagramm

>   0 mm/Tag

>   2 mm/Tag

>   5 mm/Tag

> 10 mm/Tag

> 20 mm/Tag

17 Tage     
3 Tage     
  1 Tag     
0 Tage     
0 Tage     

Eisige Tage Dezember 2013 / 2012

Tmin ≤ -10C     

0 Tage

/

  1 Tag

Eistage Dezember 2013 / 2012

Tmax <     0C     

0 Tage

/

5 Tage

Frosttage Dezember 2013 / 2012

Tmin ≤     0C     

11 Tage

/

12 Tage

Kalte Tage Dezember 2013 / 2012

Tmax <   10C     

27 Tage

/

27 Tage

Warme Tage Dezember 2013 / 2012

Tmax ≥   20C     

0 Tage

/

0 Tage

Sommertage Dezember 2013 / 2012

Tmax ≥   25C     

0 Tage

/

0 Tage

Heisse Tage Dezember 2013 / 2012

Tmax ≥   30C     

0 Tage

/

0 Tage


Monatsdiagramm Dezember 2013

Die Kurven zeigen den Durchschnittswert des jeweiligen Tages an


Wetter-Monatsübersicht Dezember 2013
Datum
  Temperatur
   Luftdruck
   Wind
  Regen
   Luftfeuchte
   Helligkeit

Sonnen-
schein


Temp.

Min.
Temp.

Max.
Temp.


Luftdruck

Min.
Luftdruck

Max.
Luftdruck

-Geschw.
Haupt-Richtg.

Max.
Wind

Menge /
Dauer


Feuchte

Min.
Feuchte

Max.
Feuchte


Helligkeit

Max.
Helligkeit

1.
Dezember
3,2 C0,9 C
04:41
4,9 C
14:01
1030,0 hPa1028,2 hPa
00:01
1032,2 hPa
23:02
1,9 km/h
W
14,4 km/h
12:16  
---
89 %86 %
15:01
92 %
06:06
8,20 klux40,50 klux
12:31
1:15 Std 
2.
Dezember
3,4 C-2,0 C
23:48
7,5 C
14:47
1033,5 hPa1032,2 hPa
00:02
1035,2 hPa
09:12
2,4 km/h
O-SO
19,2 km/h
13:12  
---
83 %70 %
15:02
91 %
06:27
16,5 klux40,1 klux
12:07
4:50 Std 
3.
Dezember
-1,2 C-3,9 C
07:33
4,9 C
15:08
1030,8 hPa1028,7 hPa
23:49
1034,0 hPa
00:48
1,4 km/h
SO
16,4 km/h
12:23  
---
85 %75 %
14:53
90 %
11:28
17,5 klux34,8 klux
12:28
7:00 Std 
4.
Dezember
1,0 C-1,2 C
00:04
3,0 C
23:45
1027,5 hPa1026,4 hPa
09:09
1029,2 hPa
22:04
8,2 km/h
O-SO
20,1 km/h
14:39  
---
88 %84 %
17:59
90 %
03:59
1,7 klux3,4 klux
12:59
--- 
5.
Dezember
1,7 C-1,4 C
07:10
4,2 C
19:10
1021,9 hPa1010,4 hPa
19:30
1030,7 hPa
03:45
21,4 km/h
W
63,0 km/h
20:00  
1,4 l/m
2:50 Stunden
84 %65 %
16:55
92 %
08:50
6,97 klux18,90 klux
11:10
--- 
6.
Dezember
1,3 C-0,1 C
15:51
3,1 C
09:51
1020,1 hPa1015,8 hPa
00:21
1025,3 hPa
23:22
30,9 km/h
W
61,1 km/h
05:01  
0,2 l/m
4:00 Stunden
81 %71 %
04:31
94 %
16:01
3,8 klux16,4 klux
10:16
--- 
7.
Dezember
2,3 C0,7 C
00:02
4,3 C
22:43
1026,3 hPa1024,9 hPa
19:42
1028,4 hPa
09:17
18,6 km/h
W
33,1 km/h
00:17  
0,6 l/m
4:10 Stunden
84 %79 %
07:52
89 %
20:32
5,9 klux39,4 klux
11:17
10 Min 
8.
Dezember
5,3 C3,9 C
03:53
6,8 C
13:28
1026,5 hPa1025,6 hPa
15:23
1027,9 hPa
09:53
19,0 km/h
W-SW
36,2 km/h
22:54  
0,2 l/m
1:19 Stunden
83 %79 %
13:43
88 %
10:53
7,8 klux40,1 klux
10:53
25 Min 
9.
Dezember
6,1 C2,7 C
21:59
10,0 C
14:29
1030,0 hPa1027,7 hPa
00:04
1034,4 hPa
21:59
15,9 km/h
W
34,6 km/h
00:59  
---
78 %69 %
14:49
85 %
23:15
14,8 klux42,6 klux
12:14
4:05 Std 
10.
Dezember
4,5 C2,8 C
21:40
6,4 C
15:40
1035,8 hPa1034,2 hPa
01:35
1037,4 hPa
19:25
0,6 km/h
SO
6,6 km/h
21:55  
---
10 Minuten
88 %85 %
00:00
91 %
22:00
5,0 klux10,5 klux
15:05
--- 
11.
Dezember
4,3 C3,3 C
23:21
5,5 C
13:05
1035,3 hPa1034,1 hPa
14:30
1036,4 hPa
00:25
3,1 km/h
O-SO
15,6 km/h
19:05  
---
55 Minuten
92 %91 %
00:00
93 %
11:05
2,4 klux5,0 klux
12:10
--- 
12.
Dezember
2,4 C1,4 C
22:01
3,2 C
00:01
1031,8 hPa1029,3 hPa
23:41
1034,4 hPa
01:21
4,0 km/h
W-SW
19,0 km/h
02:31  
---
5 Minuten
91 %89 %
17:26
93 %
02:16
3,75 klux8,25 klux
11:31
--- 
13.
Dezember
1,5 C0,3 C
22:41
3,3 C
14:51
1027,4 hPa1025,3 hPa
18:01
1029,3 hPa
00:01
3,0 km/h
W-SW
13,8 km/h
13:17  
---
87 %82 %
14:46
90 %
00:01
10,13 klux41,80 klux
13:06
2:25 Std 
14.
Dezember
1,9 C-0,2 C
05:06
4,2 C
17:16
1028,7 hPa1025,4 hPa
06:11
1032,5 hPa
23:52
7,5 km/h
W-SW
21,1 km/h
17:01  
0,5 l/m
3:34 Stunden
90 %88 %
18:41
91 %
13:31
2,4 klux5,9 klux
11:12
--- 
15.
Dezember
3,5 C0,4 C
23:53
7,3 C
15:22
1030,9 hPa1029,1 hPa
05:07
1032,6 hPa
00:42
6,9 km/h
W-SW
24,1 km/h
06:27  
---
80 %52 %
16:37
90 %
01:22
6,31 klux20,10 klux
15:17
30 Min 
16.
Dezember
3,2 C-3,0 C
08:53
10,5 C
15:43
1028,9 hPa1027,2 hPa
15:43
1030,6 hPa
04:13
3,2 km/h
SO
20,2 km/h
17:08  
---
73 %59 %
15:53
86 %
10:48
17,9 klux33,2 klux
12:43
6:35 Std 
17.
Dezember
0,9 C-2,5 C
07:34
7,0 C
14:59
1027,0 hPa1025,5 hPa
23:15
1028,9 hPa
09:44
0,7 km/h
SO
11,0 km/h
20:59  
---
82 %70 %
01:24
88 %
11:44
15,8 klux31,6 klux
12:04
5:45 Std 
18.
Dezember
4,2 C-1,9 C
02:20
8,4 C
13:45
1021,0 hPa1013,0 hPa
23:56
1025,6 hPa
01:20
9,8 km/h
W-SW
26,5 km/h
22:31  
---
80 %72 %
21:35
90 %
08:15
10,3 klux38,1 klux
11:45
2:01 Std 
19.
Dezember
7,4 C4,6 C
23:52
8,8 C
01:31
1009,7 hPa1006,8 hPa
10:16
1015,5 hPa
23:52
15,7 km/h
W-SW
39,7 km/h
09:41  
1,7 l/m
4:45 Stunden
80 %70 %
01:51
88 %
13:21
3,5 klux9,6 klux
14:11
--- 
20.
Dezember
3,5 C1,9 C
04:42
6,5 C
14:27
1024,4 hPa1015,5 hPa
00:02
1032,4 hPa
23:38
8,9 km/h
W-SW
26,0 km/h
11:57  
0,3 l/m
20 Minuten
84 %73 %
15:52
91 %
09:17
8,9 klux32,2 klux
13:27
2:40 Std 
21.
Dezember
2,9 C1,5 C
01:43
4,8 C
23:59
1029,0 hPa1022,7 hPa
23:59
1032,5 hPa
01:43
12,9 km/h
W-SW
30,3 km/h
23:09  
---
77 %66 %
23:59
86 %
02:23
10,1 klux32,0 klux
12:23
1:45 Std 
22.
Dezember
7,4 C4,9 C
00:04
8,9 C
22:14
1019,0 hPa1017,0 hPa
22:14
1022,7 hPa
00:04
24,2 km/h
W-SW
48,7 km/h
10:39  
2,6 l/m
5:01 Stunden
81 %62 %
01:19
88 %
23:45
6,5 klux28,9 klux
11:24
45 Min 
23.
Dezember
7,3 C5,2 C
08:50
8,8 C
17:40
1015,8 hPa1006,7 hPa
23:41
1019,5 hPa
08:50
18,7 km/h
W-SW
40,5 km/h
02:05  
4,1 l/m
1:45 Stunden
81 %75 %
23:06
89 %
00:55
7,9 klux26,9 klux
10:50
1:10 Std 
24.
Dezember
10,4 C8,3 C
02:46
12,7 C
19:26
999,1 hPa993,0 hPa
23:42
1006,7 hPa
00:01
31,4 km/h
W-SW
46,0 km/h
00:51  
---
10 Minuten
65 %59 %
14:01
75 %
00:01
6,0 klux23,6 klux
12:51
5 Min 
25.
Dezember
8,1 C5,2 C
22:38
11,0 C
00:22
992,8 hPa988,8 hPa
04:52
995,6 hPa
21:17
14,3 km/h
W-SW
52,7 km/h
05:22  
0,5 l/m
3:41 Stunden
82 %71 %
00:12
87 %
08:27
2,6 klux5,2 klux
13:02
--- 
26.
Dezember
5,1 C4,5 C
05:33
5,9 C
13:28
997,6 hPa993,6 hPa
02:28
1006,2 hPa
23:48
5,1 km/h
W
19,2 km/h
23:18  
0,3 l/m
6:25 Stunden
89 %87 %
00:03
91 %
11:48
2,55 klux6,81 klux
13:03
--- 
27.
Dezember
5,3 C2,5 C
03:43
8,5 C
23:39
1004,5 hPa1001,5 hPa
23:39
1007,5 hPa
03:43
20,8 km/h
W-SW
48,5 km/h
10:13  
---
77 %66 %
13:33
87 %
00:03
12,09 klux42,90 klux
12:18
2:40 Std 
28.
Dezember
8,2 C5,3 C
23:55
9,6 C
02:54
1001,9 hPa999,3 hPa
06:04
1007,1 hPa
23:55
20,3 km/h
W-SW
37,0 km/h
00:14  
5,5 l/m
7:30 Stunden
79 %65 %
08:49
89 %
22:04
3,8 klux10,3 klux
13:34
--- 
29.
Dezember
3,8 C0,2 C
23:56
6,6 C
14:25
1017,3 hPa1007,1 hPa
00:00
1026,4 hPa
23:56
10,8 km/h
W-SW
33,5 km/h
00:15  
0,5 l/m
1:30 Stunden
85 %77 %
13:35
90 %
00:40
12,5 klux40,7 klux
12:15
3:10 Std 
30.
Dezember
2,6 C-0,5 C
01:06
4,5 C
14:56
1026,4 hPa1023,9 hPa
21:11
1028,4 hPa
02:06
9,4 km/h
SW
29,8 km/h
14:31  
---
81 %74 %
15:41
89 %
01:36
11,3 klux40,5 klux
12:01
2:40 Std 
31.
Dezember
1,5 C-1,0 C
08:32
4,9 C
13:47
1019,2 hPa1014,0 hPa
22:42
1024,0 hPa
00:47
6,4 km/h
O-SO
27,3 km/h
14:42  
---
81 %73 %
14:42
88 %
09:47
16,1 klux31,6 klux
12:42
6:00 Std 



Dezember
2013

Temperatur

  

Luftdruck

  

Wind

  

Regen

  

Luftfeuchte

  

Helligkeit

Sonnen-
schein

Min

Max

Min

Max

Max

Max

Min

Max

Max

Max

4,0 C

-3,9 C

07:33 Uhr
03.12.2013

12,7 C

19:26 Uhr
24.12.2013

1021,6 hPa

988,8 hPa

04:52 Uhr
25.12.2013

1037,4 hPa

19:25 Uhr
10.12.2013

11,5 km/h

W-SW

63,0 km/h

20:00 Uhr
05.12.2013

5,5 l/m

7:30 Stunden
28.12.2013

83 %

52 %

16:37 Uhr
15.12.2013

94 %

16:01 Uhr
06.12.2013

8,4 klux

42,90 klux

12:18 Uhr
27.12.2013

7:00 Std

am
03.12.2013

Gesamt

Gesamt

18,1 l/m

17 Tage
48:10 h

55:56 Std


Wetter-Diagramme Dezember 2013     Heinzenberg / Taunus   
TemperaturLuftfeuchte
SolarstrahlungLuftdruck
HelligkeitSonnenschein
RegenmengeRegendauer
Wind-GeschwindigkeitWind-Richtung